Regional Weather Roundup
Issued by NWS

Home | Current Version | Previous Version | Graphics & Text | Print | Product List | Glossary On
Versions: 1 2 3 4 5 6 7 8 9 10 11 12 13 14 15 16 17 18 19 20 21 22 23 24 25 26 27 28 29 30 31 32 33 34 35 36 37 38 39 40 41 42 43 44 45 46 47 48 49 50
661
ASUS43 KLOT 230408
RWRIL

ILLINOIS REGIONAL WEATHER ROUNDUP
NATIONAL WEATHER SERVICE CHICAGO/ROMEOVILLE IL
1000 PM CST THU FEB 22 2018

NOTE: "FAIR" INDICATES FEW OR NO CLOUDS BELOW 12,000 FEET WITH NO
SIGNIFICANT WEATHER AND/OR OBSTRUCTIONS TO VISIBILITY.

* THESE STATIONS ARE NOT UNDER NWS QUALITY CONTROL. THEY ALSO MAY NOT
  REPORT WEATHER SUCH AS PRECIPITATION OR FOG.

ILZ001-002-007-009-015-016-024-230500-
NORTHWEST ILLINOIS

CITY           SKY/WX    TMP DP  RH WIND       PRES   REMARKS
MOLINE         CLOUDY    37  36  96 E8        30.25F FOG     WCI  31
STERLING*      MIX PCPN  34  33  96 E7        30.28F FOG     WCI  28
SAVANNA*       RAIN      34  32  91 E7        30.28F WCI  28
$$

ILZ003-004-008-010-011-017-018-230500-
NORTH CENTRAL ILLINOIS

CITY           SKY/WX    TMP DP  RH WIND       PRES   REMARKS
ROCKFORD       CLOUDY    36  31  82 E8        30.30F WCI  30
FREEPORT*      CLOUDY    33  31  91 E8        30.30F WCI  27
ROCHELLE*      CLOUDY    35  34  94 E8        30.29S WCI  29
DE KALB*       CLOUDY    37  35  91 SE10      30.29F WCI  30
PERU*          CLOUDY    39  38  97 SE12      30.28F FOG     WCI  32
$$

ILZ005-006-012>014-019>023-230500-
NORTHEAST ILLINOIS

CITY           SKY/WX    TMP DP  RH WIND       PRES   REMARKS
CHICAGO-OHARE  CLOUDY    39  33  79 E15G25    30.29F WCI  31
CHICAGO-MIDWAY CLOUDY    40  35  83 E15       30.31F
AURORA         CLOUDY    40  35  83 E13       30.29F
LANSING*       CLOUDY    39  38  94 E9        30.34R WCI  33
JOLIET*        CLOUDY    42  39  89 E12G17    30.30F
WAUKEGAN       CLOUDY    37  32  82 E10       30.31F WCI  30
DUPAGE AIRPORT CLOUDY    39  36  89 E13G18    30.28F FOG     WCI  31
KANKAKEE*      CLOUDY    41  39  95 SE13      30.34R
WHEELING       CLOUDY    39  35  86 SE12      30.32F WCI  32
MORRIS*        CLOUDY    41  38  90 SE12      30.29F
ROMEOVILLE*    CLOUDY    39  36  89 SE10      30.30F WCI  33
NORTHERLY ISL    N/A     35  32  88 E10         N/A  WCI  27
$$

LMZ740>746-230500-
SOUTHERN LAKE MICHIGAN

STATION/POSITION SKY/WX   TEMP    WIND        PRES    VSBY  WAVE
                          AIR SEA DIR/SP/G                  HT/PER
                          (F)     (DEG/KT/KT) (MB)    (MI)  (FT/S)
HARRISON CRIB              37     100/ 16/ 17   N/A
BURNHAM HARBOR             36     110/ 10/ 10   N/A
CALUMET HARBOR             36      50/  7/  8 1026.8R
BURNS HARBOR               39     100/  8/ 18 1027.4F
MICHIGAN CITY              38     100/ 19/ 23   N/A
$$

ILZ025>027-034>036-040-047-049-050-058-095>099-230500-
WEST-CENTRAL ILLINOIS

CITY           SKY/WX    TMP DP  RH WIND       PRES   REMARKS
QUINCY         FOG       38  38 100 SE8       30.20F VSB 1/4 WCI  32
GALESBURG*     FOG       39  39 100 E6        30.25F VSB 1/2 WCI  35
MACOMB*        FOG       38  38 100 SE8       30.26F VSB 1/4 WCI  32
JACKSONVILLE*  CLOUDY    41  41  99 CALM      30.23F FOG
PITTSFIELD*    FOG       38  38 100 E5        30.22F VSB 1/4 WCI  35
$$

ILZ028>032-037-038-041>044-048-051>054-059>061-230500-
CENTRAL ILLINOIS

CITY           SKY/WX    TMP DP  RH WIND       PRES   REMARKS
PONTIAC        CLOUDY    42  42  98 SE9       30.31F FOG
BLOOMINGTON    CLOUDY    41  41 100 SE15      30.27F FOG
DECATUR        CLOUDY    43  43 100 SE10      30.28F FOG
PEORIA         CLOUDY    42  41  96 SE6       30.27F FOG
LACON*         CLOUDY    41  41 100 SE8       30.27F FOG
LINCOLN*       CLOUDY    44  44 100 SE10      30.25F FOG
SPRINGFIELD    CLOUDY    46  44  93 SE12      30.25F
TAYLORVILLE    LGT RAIN  44  44 100 SE9       30.26F
$$

ILZ033-039-045-046-055>057-062-063-230500-
EAST-CENTRAL ILLINOIS

CITY           SKY/WX    TMP DP  RH WIND       PRES   REMARKS
CHAMPAIGN      FOG       42  42 100 SE14      30.29F VSB 1/2
DANVILLE*      CLOUDY    42  42  99 SE10      30.28F FOG
RANTOUL*       CLOUDY    44  44  99 SE13      30.30R FOG
MATTOON        FOG       43  43 100 SE8       30.30S VSB 1/2
PARIS*         CLOUDY    43  43 100 SE9       30.32F FOG
$$

ILZ079-100>102-230500-
SOUTHWEST ILLINOIS

CITY           SKY/WX    TMP DP  RH WIND       PRES   REMARKS
ALTON          LGT RAIN  43  43 100 SE8       30.29S
BELLEVILLE     LGT RAIN  44  43  95 E6        30.26F
CAHOKIA*       RAIN      44  42  93 E7          N/A  FOG
SPARTA*        RAIN      44  44 100 E7        30.26F
$$

ILZ064>066-069>071-074>076-080>082-084>086-088>090-092>094-230500-
SOUTH-CENTRAL ILLINOIS

CITY           SKY/WX    TMP DP  RH WIND       PRES   REMARKS
CARBONDALE     NOT AVBL
CAIRO*         HVY RAIN  47  47  99 E6        30.28F
EFFINGHAM*     LGT RAIN  46  46 100 E5        30.31S VSB 1
MARION         RAIN      47  46  98 E6        30.29F
MT. VERNON     LGT RAIN  46  46 100 E5        30.29F FOG
CENTRALIA*     LGT RAIN  46  46 100 SE6       30.28F
SALEM*         LGT RAIN  47  46  94 SE5       30.31R
METROPOLIS*    RAIN      49  48  95 CALM      30.32S
$$

ILZ067-068-072-073-078-083-087-091-230500-
SOUTHEAST ILLINOIS

CITY           SKY/WX    TMP DP  RH WIND       PRES   REMARKS
LAWRENCEVILLE  FOG       47  46  97 E9        30.32F VSB 1/2
FLORA*         DRZL/FOG  48  47  97 SE6       30.34R VSB 3/4
FAIRFIELD*     LGT RAIN  47  47 100 CALM      30.32R VSB 1/2
HARRISBURG*    RAIN      47  47 100 E8        30.30F
ROBINSON*      CLOUDY    45  45 100 SE8       30.35F FOG
CARMI*         FOG       47  47 100 CALM      30.32S VSB 1/2
$$

ABBREVIATIONS USED IN REMARKS
   TC - TEMPERATURE IN CELSIUS
  WCI - WIND CHILL INDEX
   HX - HEAT INDEX
  VSB - VISIBILITY
$$





USA.gov is the U.S. government's official web portal to all federal, state and local government web resources and services.